星链-33749 (STARLINK-33749)

导读

STARLINK-33749是美国SpaceX星链星座的一颗卫星,于2025年4月28日发射升空。星链项目旨在构建全球卫星互联网星座,为全球偏远地区、海洋等网络覆盖薄弱区域提供高速互联网接入服务。该卫星入轨后,将与其他星链卫星组网,进一步扩展星链星座的覆盖范围与服务能力。

Basic Information
目录编号:
63716
目录名称:
STARLINK-33749
国际标识:
2025-087V
轨道中心:
EARTH
卫星名称:
星链-33749
卫星全名:
星链-33749 (STARLINK-33749)
卫星状态:
在轨 (已飞行494 天)
发射日期:
2025-04-28 UTC
国别 :
美国 (US)
星等 :
--
Orbit Information
数据来源 国际轨道数据
星历时间: 2026-09-04T12:24:49+0800
10小时前
查看轨道信息
半长轴: 6848.84km
偏心率: 0.000134
轨道倾角: 53.157°
近地点辐角 99.885°
升交点赤经 109.349°
平近点角 260.230°
近地点: 469.785km
远地点: 471.621km
周期: 94.012分钟
每日圈数: 15.317125
Detailed Information
固有亮度:
5
最大亮度:
2.5
卫星平台:
Starlink V1.0
覆盖范围:
全球
运营商:
太空探索技术公司
运营商所在国:
美国
制造商(研发单位):
太空探索技术公司
制造商所在国:
美国
使用方式:
暂无
Satellite Introduction
Starlink 计划是 SpaceX 推出的全球卫星互联网项目,通过发射低轨道卫星,为全球尤其是偏远地区提供高速、低延迟的互联网服务。自 2019 年起,Starlink 已部署数千颗卫星,旨在缩小全球数字鸿沟,推动互联网普及。该项目还为军事、航空等行业提供通信支持,带来广泛经济效益。
2D Orbit Map
3D Orbit Map
Orbit Altitude Analysis Chart
Orbit Inclination Analysis Chart
Orbit Comprehensive Analysis Chart
View Comprehensive Chart
Conjunction Data List
Event ID Objects TCA Miss Dist (km) Collision Risk Probability Collision Risk Index (CRI) Action
CDM_260905-054905-316306-371621
2026-09-05T
05:49:07+0000
0.806 km
远距离
1.923723E-5 中风险 0.61
CDM_260904-232806-047906-371621
2026-09-04T
23:28:43+0000
1.321 km
极远距离
9.881366E-6 低风险 0.55
CDM_260905-034906-371606-955621
2026-09-05T
03:49:32+0000
2.404 km
极远距离
1.882187E-6 低风险 0.4
CDM_260904-231306-371606-565821
2026-09-04T
23:13:34+0000
2.421 km
极远距离
1.860354E-6 低风险 0.4
CDM_260905-201606-371606-929921
2026-09-05T
20:16:38+0000
2.645 km
极远距离
1.591458E-6 低风险 0.39
CDM_260904-225605-632806-371621
2026-09-04T
22:56:02+0000
2.944 km
极远距离
1.325215E-6 低风险 0.37
CDM_260906-144706-371606-829521
2026-09-06T
14:47:20+0000
2.675 km
极远距离
1.295311E-6 低风险 0.37
CDM_260904-035106-371606-441321
2026-09-04T
03:51:13+0000
2.879 km
极远距离
1.248181E-6 低风险 0.37
CDM_260903-014706-371606-518021
2026-09-03T
01:47:44+0000
2.338 km
极远距离
1.13781E-6 低风险 0.36
CDM_260830-200506-371606-904721
2026-08-30T
20:05:23+0000
2.512 km
极远距离
1.114457E-6 低风险 0.36